NOAA 16 DEB, 42365

Orbit data source: Space-Track

NOAA 16 DEB, 42365 is space debris in SSO originally from a launch on Thu, 21 Sep 2000 UTC launched from the Air Force Western Test Range (AFWTR). Debris objects in space refer to the collection of defunct objects orbiting the Earth. Examples of debris include non-operational satellites, rocket bodies, and fragments generated from explosions, collisions, or faulty payload assembly.

Loading next visibility...
Identifier
42365, 2000-055RH
Orbit
SSO
Country
Flag of USUS
Related business
Manufacturer
Unknown
Mission
Spacecraft
Bus & Motor
Unknown
Mass
Unknown
Launch date (UTC)
2000-09-21 (26 years ago)
Launch vehicle
Unknown
Launch site
Air Force Western Test Range (AFWTR)
Object type
Payload
Rocket body
Debris
Shape & HBR
Unknown shape, 0.1 m
Radar Cross Section
Medium (>0.1 m² and <1 m²)

Expand to show TLE details & history
Last TLE update: 12 hours ago

TLE from 12 hours ago
0 NOAA 16 DEB
1 42365U 00055RH  26263.40795822  .00003279  00000-0  78761-3 0  9999
2 42365  98.9654 121.3648 0033793 190.2260 169.8251 14.53805786552543
Epoch: 2026-09-20T09:47Z
TLE epoch observation values (Epoch: 2026-09-20T09:47:27.590Z)
Latitude
0.00002°
Longitude
-24.80273°
Altitude
739.792 km
Speed
7.473 km/s
True Right ascension
08h 05m 27s
True Declination
0° 00' 00"
Sunlit
Object was in daylight at epoch
Visualization orbit readout
Latitude
Unknown
Longitude
Unknown
Altitude
Unknown
Speed
Unknown
Apparent Right ascension
Unknown
Apparent Declination
Unknown
Sunlit
N/A
Visualization observer readout
Local Sidereal Time
14:40:17
Azimuth
Unknown
Elevation
Unknown
Doppler factor
Unknown
Orbital elements
Apogee altitude
734.326 km
Perigee altitude
686.417 km
Semi-major axis
7,088.509 km
Eccentricity
0.00338
Inclination
98.9654°
RAAN
121.3648°
Arg. of periapsis
190.226°
True anomaly
169.89322°
Mean anomaly
169.8251°
Eccentric anomaly
169.85919°
Mean motion
3.63673 °/min
Orbital period
98.99 mins
BSTAR
0.00078761
Loading maneuver chart data...
Computing Atmospheric mass density...
Loading historical data...
Loading historical data...
Loading historical data...
Loading historical data...
Loading historical data...
Loading historical data...
Loading historical data...

Documentation

Showing up to 5 results
|